Tracking 19636 objects as of 24-May-2019
HD Live streaming from Space Station
objects crossing your sky now

SL-14 R/B

Track SL-14 R/B now!
10-day predictions
SL-14 R/B is classified as:


NORAD ID: 21820
Int'l Code: 1991-086B
Perigee: 443.2 km
Apogee: 2,991.7 km
Inclination: 82.6 °
Period: 120.7 minutes
Semi major axis: 8088 km
RCS: 5.3273 m2 (large)
Launch date: December 18, 1991
Source: Commonwealth of Independent States (former USSR) (CIS)
Launch site: PLESETSK MISSILE AND SPACE COMPLEX (PKMTR)

Note: This is a ROCKET BODY
aabbcc
Your satellite tracking list
Your tracking list is empty




NASA's NSSDC Master Catalog

Two Line Element Set (TLE):
1 21820U 91086B   19142.81894268 +.00000008 +00000-0 +12275-5 0  9990
2 21820 082.5656 062.7812 1575378 242.7926 100.4169 11.93448549190831
Source of the keplerian elements: AFSPC